• In Latvia
  • List of Countries
  • For 7 days
  • Water Temperature
  • Satellite Maps
  • Weather Map
  • Weather Widgets
  • user-avatar
    Login

    Hourly Weather Adelaide

    Today, 16 January, Tuesday

    Time Temperature Precipitation Wind Pressure Humidity
    00:00 +21°C° 0 mm 5 mps 760 mmHg 74%
    01:00 +20°C° 0 mm 5 mps 760 mmHg 72%
    02:00 +20°C° 0 mm 4 mps 760 mmHg 70%
    03:00 +20°C° 0 mm 3 mps 760 mmHg 68%
    04:00 +20°C° 0 mm 3 mps 760 mmHg 66%
    05:00 +20°C° 0 mm 4 mps 760 mmHg 64%
    06:00 +20°C° 0 mm 4 mps 761 mmHg 63%
    07:00 +22°C° 0 mm 4 mps 761 mmHg 56%
    08:00 +25°C° 0 mm 3 mps 761 mmHg 50%
    09:00 +27°C° 0 mm 2 mps 761 mmHg 42%
    10:00 +28°C° 0 mm 2 mps 761 mmHg 38%
    11:00 +30°C° 0 mm 3 mps 760 mmHg 34%
    12:00 +31°C° 0 mm 3 mps 760 mmHg 30%
    13:00 +33°C° 0 mm 3 mps 759 mmHg 30%
    14:00 +33°C° 0 mm 4 mps 759 mmHg 29%
    15:00 +33°C° 0 mm 4 mps 758 mmHg 29%
    16:00 +32°C° 0 mm 4 mps 758 mmHg 30%
    17:00 +32°C° 0 mm 4 mps 758 mmHg 31%
    18:00 +30°C° 0 mm 4 mps 758 mmHg 32%
    19:00 +28°C° 0 mm 4 mps 758 mmHg 37%
    20:00 +26°C° 0 mm 4 mps 758 mmHg 41%
    21:00 +25°C° 0 mm 4 mps 759 mmHg 46%
    22:00 +23°C° 0 mm 4 mps 758 mmHg 47%
    23:00 +23°C° 0 mm 4 mps 758 mmHg 49%

    Tomorrow, 17 January, Wednesday

    Time Temperature Precipitation Wind Pressure Humidity
    00:00 +24°C° 0 mm 3 mps 758 mmHg 51%
    01:00 +22°C° 0 mm 3 mps 758 mmHg 50%
    02:00 +22°C° 0 mm 3 mps 758 mmHg 50%
    03:00 +23°C° 0 mm 2 mps 757 mmHg 49%
    04:00 +24°C° 0 mm 2 mps 757 mmHg 45%
    05:00 +24°C° 0 mm 3 mps 757 mmHg 41%
    06:00 +25°C° 0 mm 3 mps 758 mmHg 37%
    07:00 +28°C° 0 mm 3 mps 758 mmHg 31%
    08:00 +32°C° 0 mm 4 mps 758 mmHg 24%
    09:00 +35°C° 0 mm 4 mps 758 mmHg 17%
    10:00 +36°C° 0 mm 4 mps 757 mmHg 16%
    11:00 +37°C° 0 mm 4 mps 757 mmHg 15%
    12:00 +39°C° 0 mm 3 mps 757 mmHg 14%
    13:00 +39°C° 0 mm 3 mps 756 mmHg 14%
    14:00 +40°C° 0 mm 2 mps 756 mmHg 13%
    15:00 +40°C° 0 mm 2 mps 755 mmHg 13%
    16:00 +39°C° 0 mm 2 mps 755 mmHg 14%
    17:00 +38°C° 0 mm 2 mps 755 mmHg 14%
    18:00 +38°C° 0 mm 3 mps 755 mmHg 15%
    19:00 +36°C° 0 mm 3 mps 755 mmHg 18%
    20:00 +34°C° 0 mm 3 mps 756 mmHg 21%
    21:00 +31°C° 0 mm 3 mps 756 mmHg 23%
    22:00 +30°C° 0 mm 3 mps 756 mmHg 24%
    23:00 +30°C° 0 mm 3 mps 756 mmHg 24%

    Day after tomorrow, 18 January, Thursday

    Time Temperature Precipitation Wind Pressure Humidity
    00:00 +29°C° 0 mm 3 mps 755 mmHg 24%
    01:00 +29°C° 0 mm 3 mps 755 mmHg 24%
    02:00 +28°C° 0 mm 3 mps 755 mmHg 23%
    03:00 +28°C° 0 mm 3 mps 755 mmHg 22%
    04:00 +29°C° 0 mm 3 mps 755 mmHg 21%
    05:00 +29°C° 0 mm 3 mps 755 mmHg 19%
    06:00 +29°C° 0 mm 4 mps 755 mmHg 18%
    07:00 +33°C° 0 mm 4 mps 756 mmHg 16%
    08:00 +36°C° 0 mm 4 mps 756 mmHg 14%
    09:00 +40°C° 0 mm 5 mps 756 mmHg 11%
    10:00 +41°C° 0 mm 4 mps 755 mmHg 11%
    11:00 +42°C° 0 mm 4 mps 755 mmHg 10%
    12:00 +43°C° 0 mm 4 mps 755 mmHg 9%
    13:00 +43°C° 0 mm 3 mps 754 mmHg 9%
    14:00 +44°C° 0 mm 3 mps 754 mmHg 8%
    15:00 +44°C° 0 mm 3 mps 753 mmHg 8%
    16:00 +43°C° 0 mm 3 mps 753 mmHg 9%
    17:00 +41°C° 0 mm 2 mps 753 mmHg 9%
    18:00 +40°C° 0 mm 2 mps 753 mmHg 10%
    19:00 +38°C° 0 mm 2 mps 753 mmHg 11%
    20:00 +37°C° 0 mm 3 mps 753 mmHg 11%
    21:00 +35°C° 0 mm 3 mps 753 mmHg 12%
    22:00 +34°C° 0 mm 3 mps 753 mmHg 13%
    23:00 +34°C° 0 mm 3 mps 753 mmHg 14%

    19 January, Friday

    Time Temperature Precipitation Wind Pressure Humidity
    00:00 +34°C° 0 mm 4 mps 753 mmHg 14%
    01:00 +33°C° 0 mm 4 mps 753 mmHg 14%
    02:00 +33°C° 0 mm 4 mps 752 mmHg 15%
    03:00 +33°C° 0 mm 4 mps 752 mmHg 15%
    04:00 +34°C° 0 mm 4 mps 752 mmHg 15%
    05:00 +34°C° 0 mm 5 mps 753 mmHg 15%
    06:00 +35°C° 0 mm 5 mps 753 mmHg 16%
    07:00 +38°C° 0 mm 6 mps 753 mmHg 15%
    08:00 +40°C° 0 mm 7 mps 753 mmHg 15%
    09:00 +43°C° 0 mm 8 mps 753 mmHg 14%
    10:00 +44°C° 0 mm 7 mps 753 mmHg 14%
    11:00 +45°C° 0 mm 7 mps 753 mmHg 15%
    12:00 +46°C° 0 mm 6 mps 753 mmHg 15%
    13:00 +45°C° 0 mm 6 mps 753 mmHg 16%
    14:00 +45°C° 0 mm 6 mps 752 mmHg 17%
    15:00 +44°C° 0 mm 6 mps 752 mmHg 18%
    16:00 +41°C° 0 mm 6 mps 752 mmHg 22%
    17:00 +39°C° 0 mm 6 mps 753 mmHg 27%
    18:00 +35°C° 0 mm 6 mps 753 mmHg 31%
    19:00 +33°C° 0 mm 6 mps 754 mmHg 38%
    20:00 +30°C° 0 mm 6 mps 755 mmHg 44%
    21:00 +28°C° 0 mm 6 mps 755 mmHg 51%
    22:00 +27°C° 0 mm 6 mps 755 mmHg 56%
    23:00 +26°C° 0 mm 5 mps 755 mmHg 60%

    20 January, Saturday

    Time Temperature Precipitation Wind Pressure Humidity
    00:00 +25°C° 0 mm 5 mps 755 mmHg 64%
    01:00 +25°C° 0.1 mm 5 mps 755 mmHg 66%
    02:00 +23°C° 0.1 mm 5 mps 755 mmHg 67%
    03:00 +23°C° 0.1 mm 4 mps 755 mmHg 68%
    04:00 +23°C° 0.1 mm 4 mps 755 mmHg 69%
    05:00 +23°C° 0.1 mm 4 mps 756 mmHg 70%
    06:00 +23°C° 0.1 mm 4 mps 756 mmHg 71%
    07:00 +26°C° 0.1 mm 4 mps 756 mmHg 63%
    08:00 +28°C° 0.1 mm 5 mps 756 mmHg 55%
    09:00 +30°C° 0.1 mm 5 mps 757 mmHg 48%
    10:00 +32°C° 0.2 mm 5 mps 756 mmHg 45%
    11:00 +33°C° 0.2 mm 5 mps 756 mmHg 43%
    12:00 +34°C° 0.2 mm 5 mps 756 mmHg 41%
    13:00 +33°C° 0.2 mm 6 mps 755 mmHg 46%
    14:00 +30°C° 0.2 mm 6 mps 755 mmHg 51%
    15:00 +29°C° 0.2 mm 7 mps 755 mmHg 57%
    16:00 +28°C° 0 mm 6 mps 755 mmHg 57%
    17:00 +27°C° 0 mm 6 mps 755 mmHg 58%
    18:00 +27°C° 0 mm 6 mps 755 mmHg 58%
    19:00 +26°C° 0 mm 5 mps 755 mmHg 60%
    20:00 +25°C° 0 mm 4 mps 756 mmHg 61%
    21:00 +25°C° 0 mm 4 mps 756 mmHg 63%
    22:00 +25°C° 0.1 mm 4 mps 755 mmHg 64%
    23:00 +23°C° 0.1 mm 4 mps 755 mmHg 65%

    21 January, Sunday

    Time Temperature Precipitation Wind Pressure Humidity
    00:00 +23°C° 0.1 mm 4 mps 755 mmHg 67%
    01:00 +23°C° 0.1 mm 4 mps 755 mmHg 69%
    02:00 +22°C° 0.1 mm 4 mps 755 mmHg 72%
    03:00 +22°C° 0.1 mm 4 mps 754 mmHg 74%
    04:00 +22°C° 0 mm 3 mps 755 mmHg 73%
    05:00 +22°C° 0 mm 3 mps 755 mmHg 72%
    06:00 +22°C° 0 mm 3 mps 755 mmHg 72%
    07:00 +25°C° 0 mm 3 mps 755 mmHg 64%
    08:00 +27°C° 0 mm 3 mps 755 mmHg 56%
    09:00 +29°C° 0 mm 3 mps 755 mmHg 48%
    10:00 +30°C° 0 mm 3 mps 755 mmHg 44%
    11:00 +33°C° 0 mm 4 mps 754 mmHg 40%
    12:00 +34°C° 0 mm 4 mps 754 mmHg 37%
    13:00 +34°C° 0 mm 5 mps 753 mmHg 37%
    14:00 +34°C° 0 mm 5 mps 753 mmHg 37%
    15:00 +34°C° 0 mm 6 mps 752 mmHg 38%
    16:00 +32°C° 0 mm 6 mps 753 mmHg 42%
    17:00 +29°C° 0 mm 6 mps 753 mmHg 47%
    18:00 +27°C° 0 mm 6 mps 754 mmHg 52%
    19:00 +24°C° 0 mm 6 mps 754 mmHg 55%
    20:00 +23°C° 0 mm 6 mps 754 mmHg 57%
    21:00 +22°C° 0 mm 5 mps 755 mmHg 60%
    22:00 +21°C° 0 mm 5 mps 755 mmHg 61%
    23:00 +21°C° 0 mm 4 mps 754 mmHg 61%
    Show more